Location: Marcé
(47.5801°N, 0.3280°W)
Time: 20:47:02
(UTC+01:00)

Vanguard 3 - Pass Details

Date: 14 December 2021
Orbit: 508 x 3260 km, 33.3° (Epoch: 17 January)

Event Time Altitude Azimuth Distance (km) Brightness Sun altitude
Rises 03:43:43 0° 250° (WSW) 6,209 - -48.8°
Reaches altitude 10° 03:47:33 10° 246° (WSW) 5,482 - -48.2°
Exits shadow 04:03:45 51° 183° (S) 3,768 10.1 -45.6°
Maximum altitude 04:04:23 51° 178° (S) 3,772 10.2 -45.5°
Drops below altitude 10° 04:22:30 10° 110° (ESE) 5,854 12.0 -42.5°
Sets 04:26:45 0° 106° (ESE) 6,640 12.5 -41.8°
